カタログに戻る

HOTSAT-1

運用中科学SSO
NORAD 56954·PAYLOAD·🇬🇧 United Kingdom

打ち上げ Jun 12, 2023 から Vandenberg Space Force Base

Loading…

次のパス (今後24時間)

TLE

最新Source: Space-Track

元期: Sep 14, 2026, 19:49 UTC

1 56954U 23084Y   26257.82593988  .00003407  00000-0  14562-3 0  9995
2 56954  97.6355  33.6249 0001782  50.8241 309.3154 15.23566539180741

AllMySatでHOTSAT-1をリアルタイム追跡

Download on the App Store